LSGGLFLC

Guest
Details From LSGG - Geneva
To LFLC - Clermont-Ferrand_Auvergne
Flight Number -
Tags generated
Created
Modified
Stats Distance 125 nm / 232 km
Max Altitude 8,400 ft / 2,560 m
Waypoints 3
Social Downloads 1
Likes 0
Share

Download

Looking for another format? Having issues loading an existing format? Contact us
Advertisement - Login to hide

Notes

Basic altitude profile: - Ascent Rate: 1500ft/min - Ascent Speed: 180kts - Cruise Altitude: 15000ft - Cruise Speed: 250kts - Descent Rate: 1100ft/min - Descent Speed: 180kts Options: - Use NATs: no - Use PACOTS: no - Use low airways: yes - Use high airways: yes

Route

LSGG NINTU LFLC

ID Type Via Altitude (ft/m) Position (lat/lon) Dist (leg/tot) Name
O LSGG APT - 0 / 0 46.23775 / 6.10617 - / 0 nm Geneva
NINTU FIX - 8,400 / 2,560 46.14722 / 5.55306 23 / 23 nm
O LFLC APT - 0 / 0 45.78671 / 3.16997 101 / 125 nm Clermont-Ferrand_Auvergne

Altitude Profile

Advertisement - Login to hide

LSGG

Details ICAO LSGG (GVA)
Name Geneva
Region Switzerland
Timezone Europe/Zurich (UTC+2.0)
Stats Elevation 1,411 ft / 430 m (AMSL)
Location 46.238100° 6.109010°
Runways 1
Magnetic Variation 2.438° E

METAR

LSGG 020020Z AUTO 30002KT 5000 NCD 12/11 Q1026 NOSIG

Decode

TAF

TAF TAF LSGG 012325Z 0200/0306 VRB02KT 5000 BR NSC TX25/0215Z TN11/0205Z TN12/0305Z PROB30 TEMPO 0204/0207 2000 BCFG BECMG 0213/0215 23007KT CAVOK

Decode

Departure Runways

ID Width Length Bearing (true/mag) Surface Threshold Overrun Markings Lighting
04 164 ft / 50 m 12,806 ft / 3,903 m 45.42° / 42.98° CONCRETE 1,076 ft / 328 m 0 ft / 0 m PREC-APP CENTERLINE EDGE THRESHOLD CALVERT TDZ REIL-OMNI
22 164 ft / 50 m 12,806 ft / 3,903 m 225.45° / 223.01° CONCRETE 0 ft / 0 m 0 ft / 0 m PREC-APP CENTERLINE EDGE THRESHOLD CALVERT-ILS TDZ REIL-OMNI

LFLC

Details ICAO LFLC (CFE)
Name Clermont-Ferrand Auvergne
Region France
Timezone Europe/Paris (UTC+2.0)
Stats Elevation 1,091 ft / 333 m (AMSL)
Location 45.786700° 3.169980°
Runways 1
Magnetic Variation 1.692° E

METAR

LFLC 020000Z AUTO VRB02KT CAVOK 17/10 Q1023 NOSIG

Decode

TAF

TAF LFLC 012300Z 0200/0224 18010KT CAVOK PROB40 TEMPO 0220/0224 18015G27KT

Decode

Destination Runways

ID Width Length Bearing (true/mag) Surface Threshold Overrun Markings Lighting
08 148 ft / 45 m 9,869 ft / 3,008 m 81.95° / 80.26° ASPHALT 0 ft / 0 m 0 ft / 0 m APP CENTERLINE EDGE THRESHOLD
26 148 ft / 45 m 9,869 ft / 3,008 m 261.98° / 260.28° ASPHALT 469 ft / 143 m 0 ft / 0 m PREC-APP CENTERLINE EDGE THRESHOLD ALSF-II TDZ

Approach Navaids

Runway Type Ident Frequency Range Bearing (true/mag) Slope Elevation
26 LOC-ILS CF 111.10 MHz 18 nm / 33 km 261.96° / 260.27 ° - 1,091 ft / 333 m (AMSL)
26 GS CF 111.10 MHz 10 nm / 19 km 261.96° / 260.27 ° 3.00° 1,091 ft / 333 m (AMSL)
26 DME CF 111.10 MHz 27 nm / 50 km - - 1,089 ft / 332 m (AMSL)

Popular Alternatives